contact:dominique.lefevre@mio.osupytheas.fr, maurice.libes@osupytheas.fr, didier.mallarino@osupytheas.fr
Project:EMSO http://www.emso-fr.org/EMSO-France
Depth: 2436.0 m
Title:EMSO Ligure Ouest : Data MII capteur AQUADOPP
Date,Latitude,Longitude,X_East,Y_North,Z_Up,Amplitude_X,Amplitude_Y,Amplitude_Z,Batterie,SoundSpeed,Heading,Pitch,Roll,Pressure,TIS,Speed,Direction
, degrees North, degrees East, m.s-1, m.s-1,m.s-1, 1, 1, 1, Volt, m.s-1, degree, degree, degree, dbar, degree_C, m.s-1, degree
2021-04-06T00:04:03,42.805,6.029,-0.02,-0.014,0.002,104.0,104.0,101.0,13.4,1505.2,326.6,-0.8,1.8,2470.307,13.29,0.024,235.0
2021-04-06T00:07:03,42.805,6.029,-0.015,0.026,0.021,103.0,102.0,103.0,13.4,1505.2,327.3,-0.7,1.8,2470.284,13.29,0.03,330.0
2021-04-06T00:10:03,42.805,6.029,0.016,-0.006,0.028,104.0,104.0,102.0,13.4,1505.2,328.8,-0.8,1.8,2470.284,13.29,0.017,110.6
2021-04-06T00:13:03,42.805,6.029,-0.018,-0.009,0.009,104.0,104.0,101.0,13.3,1505.2,325.9,-0.7,1.8,2470.269,13.29,0.02,243.4
2021-04-06T00:16:03,42.805,6.029,-0.012,-0.012,0.002,104.0,104.0,101.0,13.3,1505.2,327.7,-0.8,1.8,2470.319,13.29,0.016,225.0
2021-04-06T00:19:03,42.805,6.029,-0.001,-0.026,0.008,103.0,105.0,101.0,13.4,1505.2,324.6,-0.8,1.8,2470.307,13.29,0.026,182.2
2021-04-06T00:22:03,42.805,6.029,-0.007,-0.007,0.021,105.0,103.0,102.0,13.4,1505.2,324.0,-0.7,1.8,2470.293,13.29,0.009,225.0
2021-04-06T00:25:03,42.805,6.029,-0.029,-0.013,0.025,102.0,105.0,101.0,13.4,1505.2,328.1,-0.8,1.8,2470.293,13.29,0.031,245.9
2021-04-06T00:28:03,42.805,6.029,-0.01,-0.008,0.031,103.0,103.0,102.0,13.3,1505.2,328.6,-0.7,1.8,2470.272,13.29,0.012,231.3
2021-04-06T00:31:03,42.805,6.029,0.008,0.012,-0.004,104.0,104.0,106.0,13.3,1505.2,325.3,-0.7,1.8,2470.307,13.29,0.014,33.7
2021-04-06T00:34:03,42.805,6.029,0.003,-0.018,0.016,104.0,107.0,102.0,13.4,1505.2,327.6,-0.7,1.8,2470.27,13.29,0.018,170.5
2021-04-06T00:37:03,42.805,6.029,0.015,0.005,0.028,105.0,104.0,101.0,13.3,1505.2,324.1,-0.8,1.9,2470.29,13.29,0.015,71.6
2021-04-06T00:40:03,42.805,6.029,-0.012,-0.009,-0.011,104.0,103.0,101.0,13.4,1505.2,328.2,-0.7,1.8,2470.314,13.29,0.015,233.1
2021-04-06T00:43:03,42.805,6.029,-0.001,-0.019,0.009,102.0,106.0,103.0,13.4,1505.2,326.0,-0.8,1.8,2470.309,13.29,0.019,183.0
2021-04-06T00:46:03,42.805,6.029,0.001,-0.004,0.006,104.0,102.0,102.0,13.4,1505.2,323.9,-0.8,1.8,2470.288,13.29,0.004,166.0
2021-04-06T00:49:03,42.805,6.029,-0.004,-0.019,0.017,104.0,104.0,103.0,13.3,1505.2,328.4,-0.7,1.8,2470.307,13.29,0.019,191.9
2021-04-06T00:52:03,42.805,6.029,-0.001,-0.011,0.017,103.0,106.0,102.0,13.4,1505.2,325.3,-0.7,1.8,2470.323,13.29,0.011,185.2
2021-04-06T00:55:03,42.805,6.029,-0.006,0.004,0.032,105.0,105.0,103.0,13.3,1505.2,323.5,-0.7,1.9,2470.335,13.29,0.007,303.7
2021-04-06T00:58:03,42.805,6.029,-0.012,-0.004,0.022,103.0,105.0,102.0,13.3,1505.2,327.1,-0.8,1.8,2470.295,13.29,0.012,251.6
2021-04-06T01:04:03,42.805,6.029,-0.015,-0.023,-0.004,103.0,105.0,102.0,13.4,1505.2,328.9,-0.8,1.8,2470.344,13.29,0.027,213.1
2021-04-06T01:07:03,42.805,6.029,-0.018,-0.007,0.012,105.0,104.0,101.0,13.4,1505.2,325.2,-0.7,1.8,2470.33,13.29,0.019,248.8
2021-04-06T01:10:03,42.805,6.029,0.006,0.0,0.008,105.0,104.0,101.0,13.3,1505.2,325.3,-0.8,1.9,2470.331,13.29,0.006,90.0
2021-04-06T01:13:03,42.805,6.029,-0.038,-0.027,-0.024,105.0,106.0,101.0,13.4,1505.2,327.2,-0.8,1.8,2470.273,13.29,0.046,234.6
2021-04-06T01:16:03,42.805,6.029,0.007,0.016,0.006,104.0,104.0,102.0,13.4,1505.2,324.3,-0.8,1.8,2470.326,13.29,0.017,23.6
2021-04-06T01:19:03,42.805,6.029,-0.01,0.006,0.033,106.0,104.0,103.0,13.3,1505.2,327.6,-0.8,1.8,2470.283,13.29,0.011,301.0
2021-04-06T01:22:03,42.805,6.029,0.005,-0.022,0.011,105.0,105.0,101.0,13.3,1505.2,326.9,-0.8,1.8,2470.307,13.29,0.022,167.2
2021-04-06T01:25:03,42.805,6.029,-0.01,0.016,0.016,104.0,106.0,102.0,13.3,1505.2,325.6,-0.8,1.8,2470.29,13.29,0.018,328.0
2021-04-06T01:28:03,42.805,6.029,0.0,0.002,0.012,104.0,104.0,103.0,13.3,1505.2,325.6,-0.8,1.8,2470.306,13.29,0.002,0.0
2021-04-06T01:31:03,42.805,6.029,0.005,-0.004,0.006,105.0,105.0,101.0,13.3,1505.2,323.8,-0.7,1.8,2470.329,13.29,0.006,128.7
2021-04-06T01:34:03,42.805,6.029,-0.006,0.011,0.018,104.0,104.0,103.0,13.3,1505.2,325.7,-0.7,1.9,2470.314,13.29,0.012,331.4
2021-04-06T01:37:03,42.805,6.029,-0.004,0.002,0.021,105.0,104.0,105.0,13.3,1505.2,327.4,-0.8,1.8,2470.321,13.29,0.004,296.6
2021-04-06T01:40:03,42.805,6.029,-0.013,-0.031,0.0,104.0,105.0,102.0,13.4,1505.2,327.0,-0.7,1.8,2470.302,13.29,0.033,202.7
2021-04-06T01:43:03,42.805,6.029,-0.003,-0.004,0.007,106.0,104.0,104.0,13.3,1505.2,325.3,-0.7,1.8,2470.316,13.29,0.005,216.9
2021-04-06T01:46:03,42.805,6.029,-0.011,-0.01,-0.01,105.0,105.0,103.0,13.4,1505.2,323.8,-0.7,1.8,2470.286,13.29,0.014,227.7
2021-04-06T01:49:03,42.805,6.029,-0.007,-0.007,0.016,104.0,106.0,104.0,13.3,1505.2,328.6,-0.8,1.8,2470.303,13.29,0.009,225.0
2021-04-06T01:52:03,42.805,6.029,0.0,0.005,0.034,105.0,105.0,103.0,13.4,1505.2,324.7,-0.7,1.8,2470.341,13.29,0.005,0.0
2021-04-06T01:55:03,42.805,6.029,-0.006,-0.015,0.012,106.0,105.0,100.0,13.3,1505.2,328.2,-0.7,1.8,2470.342,13.29,0.016,201.8
2021-04-06T01:58:03,42.805,6.029,0.002,-0.004,0.004,105.0,104.0,103.0,13.3,1505.2,325.0,-0.7,1.8,2470.321,13.29,0.004,153.4
2021-04-06T02:04:03,42.805,6.029,-0.003,-0.006,0.025,105.0,104.0,102.0,13.4,1505.2,327.3,-0.8,1.8,2470.309,13.28,0.006,206.6
2021-04-06T02:07:03,42.805,6.029,0.009,-0.023,0.02,104.0,105.0,104.0,13.4,1505.2,327.3,-0.8,1.8,2470.328,13.29,0.024,158.6
2021-04-06T02:10:03,42.805,6.029,-0.008,-0.027,-0.015,105.0,105.0,104.0,13.3,1505.2,326.8,-0.7,1.8,2470.287,13.29,0.028,196.5
2021-04-06T02:13:03,42.805,6.029,0.008,-0.005,0.018,104.0,106.0,103.0,13.4,1505.2,326.5,-0.8,1.8,2470.34,13.29,0.009,122.0
2021-04-06T02:16:03,42.805,6.029,-0.016,-0.012,-0.006,105.0,104.0,102.0,13.4,1505.2,323.2,-0.8,1.8,2470.355,13.29,0.02,233.1
2021-04-06T02:19:03,42.805,6.029,0.011,-0.024,0.001,108.0,104.0,102.0,13.4,1505.2,325.5,-0.8,1.8,2470.315,13.29,0.026,155.4
2021-04-06T02:22:03,42.805,6.029,-0.008,-0.005,0.003,105.0,104.0,101.0,13.3,1505.2,325.0,-0.8,1.8,2470.319,13.29,0.009,238.0
2021-04-06T02:25:03,42.805,6.029,0.006,-0.025,-0.011,103.0,104.0,102.0,13.4,1505.2,327.9,-0.8,1.8,2470.341,13.29,0.025,166.5
2021-04-06T02:28:03,42.805,6.029,-0.003,-0.003,-0.007,105.0,105.0,102.0,13.3,1505.2,325.9,-0.7,1.9,2470.336,13.29,0.004,225.0
2021-04-06T02:31:03,42.805,6.029,-0.001,-0.011,-0.007,107.0,102.0,102.0,13.4,1505.2,323.6,-0.8,1.8,2470.322,13.29,0.011,185.2
2021-04-06T02:34:03,42.805,6.029,0.009,-0.002,0.019,105.0,104.0,102.0,13.3,1505.2,323.8,-0.7,1.8,2470.3,13.29,0.009,102.5
2021-04-06T02:37:03,42.805,6.029,-0.004,-0.004,0.009,104.0,104.0,102.0,13.4,1505.2,328.6,-0.8,1.8,2470.328,13.29,0.005,225.0
2021-04-06T02:40:03,42.805,6.029,0.0,-0.003,0.011,103.0,103.0,102.0,13.3,1505.2,324.5,-0.8,1.8,2470.329,13.29,0.003,180.0
2021-04-06T02:43:03,42.805,6.029,-0.01,-0.017,0.016,106.0,104.0,102.0,13.4,1505.2,324.9,-0.8,1.8,2470.276,13.29,0.019,210.5
2021-04-06T02:46:03,42.805,6.029,-0.008,-0.019,0.0,104.0,103.0,102.0,13.3,1505.2,324.5,-0.8,1.8,2470.336,13.28,0.02,202.8
2021-04-06T02:49:03,42.805,6.029,-0.01,-0.016,-0.013,104.0,103.0,101.0,13.4,1505.2,328.7,-0.7,1.8,2470.324,13.28,0.018,212.0
2021-04-06T02:52:03,42.805,6.029,-0.014,-0.024,-0.012,104.0,104.0,102.0,13.4,1505.2,325.6,-0.7,1.8,2470.331,13.28,0.027,210.3
2021-04-06T02:55:03,42.805,6.029,-0.003,-0.011,0.019,103.0,104.0,103.0,13.4,1505.2,324.3,-0.8,1.8,2470.318,13.28,0.011,195.3
2021-04-06T02:58:03,42.805,6.029,0.011,-0.007,0.014,106.0,106.0,102.0,13.4,1505.2,327.0,-0.7,1.8,2470.324,13.29,0.013,122.5
2021-04-06T03:04:03,42.805,6.029,-0.013,-0.023,-0.014,103.0,103.0,101.0,13.4,1505.2,326.5,-0.8,1.8,2470.367,13.28,0.026,209.5
2021-04-06T03:07:03,42.805,6.029,0.01,-0.019,0.018,105.0,105.0,103.0,13.4,1505.2,328.2,-0.8,1.8,2470.324,13.28,0.021,152.2
2021-04-06T03:10:03,42.805,6.029,0.009,-0.025,0.018,104.0,104.0,102.0,13.4,1505.2,327.6,-0.8,1.8,2470.294,13.28,0.026,160.2
2021-04-06T03:13:03,42.805,6.029,0.001,-0.03,-0.017,106.0,104.0,105.0,13.3,1505.2,328.6,-0.8,1.8,2470.335,13.28,0.03,178.1
2021-04-06T03:16:03,42.805,6.029,-0.008,-0.023,0.003,104.0,105.0,101.0,13.4,1505.2,327.3,-0.8,1.8,2470.324,13.28,0.024,199.2
2021-04-06T03:19:03,42.805,6.029,0.0,-0.005,-0.01,105.0,105.0,101.0,13.4,1505.2,325.6,-0.7,1.8,2470.334,13.28,0.005,180.0
2021-04-06T03:22:03,42.805,6.029,-0.002,-0.019,0.042,105.0,104.0,102.0,13.4,1505.2,325.0,-0.8,1.8,2470.331,13.29,0.019,186.0
2021-04-06T03:25:03,42.805,6.029,0.004,-0.02,0.004,106.0,104.0,101.0,13.3,1505.2,327.6,-0.8,1.8,2470.292,13.29,0.02,168.7
2021-04-06T03:28:03,42.805,6.029,0.002,-0.005,0.007,104.0,103.0,103.0,13.4,1505.2,323.5,-0.8,1.9,2470.343,13.29,0.005,158.2
2021-04-06T03:31:03,42.805,6.029,-0.013,0.0,0.039,102.0,105.0,102.0,13.4,1505.2,328.0,-0.7,1.9,2470.361,13.29,0.013,270.0
2021-04-06T03:34:03,42.805,6.029,-0.015,-0.005,0.015,104.0,105.0,102.0,13.3,1505.2,326.5,-0.8,1.8,2470.28,13.29,0.015,251.6
2021-04-06T03:37:03,42.805,6.029,-0.002,0.009,0.021,104.0,103.0,102.0,13.3,1505.2,325.1,-0.7,1.8,2470.314,13.29,0.009,347.5
2021-04-06T03:40:03,42.805,6.029,0.0,-0.019,0.0,104.0,105.0,102.0,13.3,1505.2,324.4,-0.8,1.8,2470.359,13.29,0.019,180.0
2021-04-06T03:43:03,42.805,6.029,0.016,-0.015,0.01,104.0,105.0,102.0,13.4,1505.2,324.8,-0.8,1.8,2470.289,13.29,0.021,133.1
2021-04-06T03:46:03,42.805,6.029,-0.024,-0.007,-0.013,105.0,106.0,102.0,13.4,1505.2,328.4,-0.7,1.8,2470.318,13.29,0.025,253.7
2021-04-06T03:49:03,42.805,6.029,-0.002,0.0,0.026,104.0,106.0,102.0,13.4,1505.2,325.5,-0.8,1.8,2470.323,13.29,0.002,270.0
2021-04-06T03:52:03,42.805,6.029,-0.024,-0.003,0.001,104.0,105.0,101.0,13.4,1505.2,327.0,-0.7,1.8,2470.316,13.29,0.024,262.9
2021-04-06T03:55:03,42.805,6.029,-0.006,-0.033,0.014,104.0,103.0,101.0,13.4,1505.2,326.9,-0.8,1.9,2470.299,13.29,0.033,190.3
2021-04-06T03:58:03,42.805,6.029,-0.021,-0.005,-0.01,103.0,106.0,104.0,13.4,1505.2,328.4,-0.7,1.8,2470.288,13.29,0.021,256.6
2021-04-06T04:04:03,42.805,6.029,0.003,-0.01,0.031,104.0,106.0,101.0,13.3,1505.2,325.0,-0.8,1.8,2470.393,13.28,0.01,163.3
2021-04-06T04:07:03,42.805,6.029,-0.028,-0.019,-0.018,105.0,102.0,101.0,13.4,1505.2,327.6,-0.8,1.8,2470.324,13.28,0.033,235.8
2021-04-06T04:10:03,42.805,6.029,0.01,-0.008,0.002,103.0,105.0,103.0,13.3,1505.2,324.5,-0.8,1.8,2470.314,13.29,0.012,128.7
2021-04-06T04:13:03,42.805,6.029,-0.002,-0.005,0.025,105.0,103.0,103.0,13.3,1505.2,324.1,-0.8,1.8,2470.334,13.29,0.005,201.8
2021-04-06T04:16:03,42.805,6.029,-0.003,-0.011,0.025,106.0,103.0,101.0,13.4,1505.2,323.6,-0.7,1.8,2470.352,13.29,0.011,195.3
2021-04-06T04:19:03,42.805,6.029,-0.022,-0.012,0.01,103.0,103.0,101.0,13.4,1505.2,324.1,-0.7,1.8,2470.309,13.29,0.025,241.4
2021-04-06T04:22:03,42.805,6.029,0.012,-0.013,0.011,103.0,105.0,103.0,13.4,1505.2,328.9,-0.7,1.8,2470.34,13.29,0.017,137.3
2021-04-06T04:25:03,42.805,6.029,-0.013,-0.013,-0.015,103.0,102.0,103.0,13.4,1505.2,325.2,-0.8,1.9,2470.332,13.29,0.018,225.0
2021-04-06T04:28:03,42.805,6.029,0.007,-0.004,0.034,105.0,105.0,103.0,13.4,1505.2,324.6,-0.8,1.8,2470.29,13.29,0.008,119.7
2021-04-06T04:31:03,42.805,6.029,-0.006,-0.015,0.004,105.0,103.0,101.0,13.4,1505.2,326.5,-0.7,1.8,2470.358,13.29,0.016,201.8
2021-04-06T04:34:03,42.805,6.029,0.016,-0.03,0.014,104.0,104.0,101.0,13.4,1505.2,324.9,-0.8,1.8,2470.331,13.29,0.034,151.9
2021-04-06T04:37:03,42.805,6.029,-0.002,0.002,0.007,102.0,103.0,101.0,13.3,1505.2,325.7,-0.7,1.8,2470.351,13.29,0.002,315.0
2021-04-06T04:40:03,42.805,6.029,0.005,-0.035,0.011,103.0,103.0,102.0,13.4,1505.2,327.9,-0.8,1.8,2470.362,13.29,0.035,171.9
2021-04-06T04:43:03,42.805,6.029,0.012,0.006,-0.006,104.0,102.0,103.0,13.4,1505.2,325.6,-0.7,1.8,2470.36,13.29,0.013,63.4
2021-04-06T04:46:03,42.805,6.029,-0.007,-0.002,0.013,102.0,104.0,101.0,13.4,1505.2,326.9,-0.7,1.9,2470.326,13.29,0.007,254.1
2021-04-06T04:49:03,42.805,6.029,-0.015,-0.004,0.014,105.0,103.0,107.0,13.4,1505.2,324.0,-0.8,1.8,2470.305,13.29,0.015,255.1
2021-04-06T04:52:03,42.805,6.029,-0.029,-0.02,0.0,104.0,102.0,100.0,13.4,1505.2,326.4,-0.8,1.8,2470.339,13.29,0.035,235.4
2021-04-06T04:55:03,42.805,6.029,0.004,-0.018,-0.006,103.0,106.0,104.0,13.3,1505.2,327.1,-0.8,1.8,2470.362,13.29,0.018,167.5
2021-04-06T04:58:03,42.805,6.029,-0.007,-0.013,-0.015,106.0,101.0,103.0,13.3,1505.2,328.8,-0.7,1.8,2470.307,13.29,0.014,208.3
2021-04-06T05:04:03,42.805,6.029,0.003,-0.018,-0.005,103.0,104.0,101.0,13.4,1505.2,327.6,-0.8,1.8,2470.334,13.29,0.018,170.5
2021-04-06T05:07:03,42.805,6.029,0.021,-0.008,0.023,103.0,105.0,103.0,13.3,1505.2,328.5,-0.7,1.8,2470.274,13.29,0.022,110.9
2021-04-06T05:10:03,42.805,6.029,-0.015,-0.01,0.0,105.0,105.0,101.0,13.4,1505.2,325.7,-0.7,1.8,2470.304,13.29,0.018,236.3
2021-04-06T05:13:03,42.805,6.029,-0.022,-0.017,-0.001,104.0,102.0,101.0,13.4,1505.2,326.4,-0.8,1.8,2470.308,13.29,0.027,232.3
2021-04-06T05:16:03,42.805,6.029,-0.028,-0.026,0.015,105.0,104.0,103.0,13.4,1505.2,327.3,-0.8,1.9,2470.32,13.29,0.038,227.1
2021-04-06T05:19:03,42.805,6.029,-0.024,-0.019,0.0,104.0,107.0,102.0,13.4,1505.2,325.4,-0.7,1.8,2470.309,13.29,0.03,231.6
2021-04-06T05:22:03,42.805,6.029,-0.003,-0.004,0.025,104.0,105.0,100.0,13.4,1505.2,324.3,-0.8,1.8,2470.3,13.29,0.005,216.9
2021-04-06T05:25:03,42.805,6.029,-0.013,0.0,-0.003,103.0,105.0,101.0,13.4,1505.2,328.1,-0.8,1.9,2470.297,13.29,0.013,270.0
2021-04-06T05:28:03,42.805,6.029,-0.019,-0.031,0.019,105.0,105.0,101.0,13.3,1505.2,325.5,-0.7,1.8,2470.302,13.29,0.036,211.5
2021-04-06T05:31:03,42.805,6.029,0.004,-0.014,-0.004,103.0,102.0,105.0,13.4,1505.2,326.4,-0.8,1.8,2470.296,13.29,0.014,164.1
2021-04-06T05:34:03,42.805,6.029,-0.002,-0.02,0.007,104.0,104.0,102.0,13.4,1505.2,328.5,-0.7,1.8,2470.325,13.29,0.02,185.7
2021-04-06T05:37:03,42.805,6.029,0.006,-0.004,0.015,103.0,103.0,100.0,13.3,1505.2,327.2,-0.7,1.8,2470.278,13.29,0.007,123.7
2021-04-06T05:40:03,42.805,6.029,-0.005,-0.011,0.019,107.0,102.0,101.0,13.4,1505.2,325.0,-0.7,1.8,2470.285,13.29,0.012,204.4
2021-04-06T05:43:03,42.805,6.029,-0.007,-0.023,0.02,103.0,104.0,101.0,13.3,1505.2,327.4,-0.7,1.8,2470.266,13.29,0.024,196.9
2021-04-06T05:46:03,42.805,6.029,0.008,-0.003,0.019,108.0,102.0,102.0,13.3,1505.2,323.7,-0.7,1.9,2470.288,13.29,0.008,110.6
2021-04-06T05:49:03,42.805,6.029,0.018,-0.033,0.012,105.0,103.0,101.0,13.4,1505.2,327.6,-0.7,1.8,2470.304,13.29,0.037,151.4
2021-04-06T05:52:03,42.805,6.029,0.001,-0.026,0.006,104.0,104.0,102.0,13.4,1505.2,327.5,-0.8,1.8,2470.262,13.29,0.026,177.8
2021-04-06T05:55:03,42.805,6.029,-0.017,-0.023,-0.019,106.0,106.0,104.0,13.4,1505.2,325.1,-0.7,1.8,2470.23,13.29,0.028,216.5
2021-04-06T05:58:03,42.805,6.029,-0.011,-0.008,-0.001,105.0,103.0,102.0,13.4,1505.2,326.4,-0.8,1.8,2470.254,13.29,0.013,234.0
2021-04-06T06:04:03,42.805,6.029,-0.029,-0.017,0.021,104.0,104.0,101.0,13.4,1505.2,325.9,-0.8,1.8,2470.284,13.29,0.033,239.6
2021-04-06T06:07:03,42.805,6.029,-0.002,-0.023,0.014,105.0,102.0,101.0,13.3,1505.2,323.9,-0.8,1.8,2470.281,13.29,0.023,185.0
2021-04-06T06:10:03,42.805,6.029,-0.012,-0.01,0.013,103.0,103.0,102.0,13.3,1505.2,326.4,-0.8,1.8,2470.246,13.29,0.015,230.2
2021-04-06T06:13:03,42.805,6.029,0.003,-0.021,0.015,109.0,103.0,101.0,13.4,1505.2,327.1,-0.8,1.8,2470.222,13.29,0.021,171.9
2021-04-06T06:16:03,42.805,6.029,-0.008,0.009,0.037,103.0,105.0,103.0,13.4,1505.2,325.7,-0.8,1.8,2470.207,13.29,0.012,318.4
2021-04-06T06:19:03,42.805,6.029,-0.002,-0.008,-0.009,104.0,103.0,104.0,13.4,1505.2,324.8,-0.8,1.8,2470.239,13.29,0.008,194.0
2021-04-06T06:22:03,42.805,6.029,-0.013,-0.03,0.008,107.0,104.0,100.0,13.3,1505.2,327.0,-0.7,1.8,2470.243,13.29,0.032,203.4
2021-04-06T06:25:03,42.805,6.029,-0.013,-0.007,-0.018,105.0,103.0,102.0,13.4,1505.2,323.9,-0.8,1.8,2470.228,13.29,0.014,241.7
2021-04-06T06:28:03,42.805,6.029,-0.013,-0.008,-0.006,103.0,103.0,102.0,13.4,1505.2,325.3,-0.7,1.8,2470.207,13.29,0.015,238.4
2021-04-06T06:31:03,42.805,6.029,0.0,-0.006,0.002,106.0,104.0,102.0,13.3,1505.2,328.2,-0.7,1.8,2470.208,13.29,0.006,180.0
2021-04-06T06:34:03,42.805,6.029,-0.014,0.01,0.014,104.0,103.0,101.0,13.3,1505.2,326.5,-0.7,1.8,2470.263,13.29,0.017,305.5
2021-04-06T06:37:03,42.805,6.029,-0.014,-0.015,-0.018,103.0,104.0,101.0,13.4,1505.2,325.9,-0.7,1.8,2470.197,13.29,0.02,223.0
2021-04-06T06:40:03,42.805,6.029,-0.02,-0.014,0.013,105.0,105.0,102.0,13.4,1505.2,325.7,-0.7,1.8,2470.213,13.29,0.024,235.0
2021-04-06T06:43:03,42.805,6.029,-0.029,-0.023,-0.028,103.0,103.0,101.0,13.4,1505.2,326.8,-0.7,1.8,2470.211,13.29,0.037,231.6
2021-04-06T06:46:03,42.805,6.029,-0.02,-0.004,0.004,103.0,103.0,101.0,13.4,1505.2,323.8,-0.7,1.8,2470.25,13.29,0.02,258.7
2021-04-06T06:49:03,42.805,6.029,-0.039,-0.013,-0.002,105.0,104.0,102.0,13.4,1505.2,328.0,-0.8,1.8,2470.217,13.29,0.041,251.6
2021-04-06T06:52:03,42.805,6.029,0.0,-0.012,-0.026,104.0,104.0,101.0,13.4,1505.2,328.7,-0.8,1.8,2470.203,13.29,0.012,180.0
2021-04-06T06:55:03,42.805,6.029,-0.021,-0.01,-0.012,104.0,103.0,102.0,13.4,1505.2,325.6,-0.8,1.8,2470.186,13.29,0.023,244.5
2021-04-06T06:58:03,42.805,6.029,-0.02,-0.004,-0.012,105.0,103.0,102.0,13.3,1505.2,327.5,-0.7,1.8,2470.182,13.29,0.02,258.7
2021-04-06T07:04:03,42.805,6.029,-0.021,-0.017,0.022,110.0,104.0,100.0,13.3,1505.2,324.4,-0.8,1.8,2470.23,13.29,0.027,231.0
2021-04-06T07:07:03,42.805,6.029,-0.012,-0.002,0.015,102.0,103.0,102.0,13.4,1505.2,328.0,-0.8,1.8,2470.219,13.29,0.012,260.5
2021-04-06T07:10:03,42.805,6.029,-0.031,-0.01,-0.02,102.0,102.0,101.0,13.4,1505.2,327.6,-0.8,1.8,2470.213,13.29,0.032,252.1
2021-04-06T07:13:03,42.805,6.029,-0.015,0.006,0.028,105.0,103.0,102.0,13.4,1505.2,325.5,-0.7,1.8,2470.179,13.29,0.016,291.8
2021-04-06T07:16:03,42.805,6.029,0.006,-0.02,0.009,103.0,102.0,103.0,13.4,1505.2,325.0,-0.7,1.8,2470.22,13.29,0.02,163.3
2021-04-06T07:19:03,42.805,6.029,-0.009,-0.01,-0.006,103.0,103.0,101.0,13.3,1505.2,328.4,-0.8,1.8,2470.195,13.29,0.013,222.0
2021-04-06T07:22:03,42.805,6.029,-0.012,-0.038,0.011,104.0,102.0,100.0,13.3,1505.2,327.1,-0.7,1.8,2470.179,13.29,0.039,197.5
2021-04-06T07:25:03,42.805,6.029,-0.006,-0.005,-0.003,104.0,104.0,100.0,13.3,1505.2,327.1,-0.7,1.8,2470.194,13.29,0.007,230.2
2021-04-06T07:28:03,42.805,6.029,-0.022,0.0,0.001,103.0,106.0,104.0,13.4,1505.2,325.4,-0.8,1.8,2470.188,13.29,0.022,270.0
2021-04-06T07:31:03,42.805,6.029,-0.007,-0.016,-0.004,102.0,104.0,102.0,13.4,1505.2,327.9,-0.7,1.8,2470.205,13.29,0.017,203.6
2021-04-06T07:34:03,42.805,6.029,-0.012,-0.018,0.01,104.0,102.0,103.0,13.3,1505.2,324.3,-0.8,1.8,2470.154,13.29,0.021,213.7
2021-04-06T07:37:03,42.805,6.029,-0.008,-0.015,0.038,101.0,104.0,102.0,13.4,1505.2,326.9,-0.8,1.8,2470.162,13.29,0.017,208.1
2021-04-06T07:40:03,42.805,6.029,-0.023,-0.006,0.014,104.0,105.0,100.0,13.4,1505.2,325.0,-0.7,1.8,2470.168,13.29,0.023,255.4
2021-04-06T07:43:03,42.805,6.029,-0.022,-0.019,-0.005,103.0,104.0,102.0,13.4,1505.2,325.3,-0.7,1.8,2470.144,13.29,0.029,229.2
2021-04-06T07:46:03,42.805,6.029,-0.017,-0.022,0.006,101.0,103.0,102.0,13.4,1505.2,323.2,-0.8,1.8,2470.157,13.29,0.027,217.7
2021-04-06T07:49:03,42.805,6.029,-0.007,-0.009,-0.005,104.0,103.0,102.0,13.3,1505.2,323.4,-0.8,1.8,2470.139,13.29,0.011,217.9
2021-04-06T07:52:03,42.805,6.029,-0.001,-0.01,0.022,105.0,103.0,102.0,13.4,1505.2,326.7,-0.8,1.9,2470.088,13.29,0.01,185.7
2021-04-06T07:55:03,42.805,6.029,-0.022,-0.01,-0.014,106.0,104.0,102.0,13.3,1505.2,324.7,-0.7,1.8,2470.145,13.29,0.024,245.6
2021-04-06T07:58:03,42.805,6.029,-0.006,-0.014,-0.002,103.0,102.0,102.0,13.4,1505.2,324.8,-0.7,1.8,2470.122,13.29,0.015,203.2
2021-04-06T08:04:03,42.805,6.029,0.003,-0.015,0.006,103.0,104.0,102.0,13.4,1505.2,328.6,-0.8,1.8,2470.128,13.29,0.015,168.7
2021-04-06T08:07:03,42.805,6.029,-0.024,0.001,-0.001,103.0,104.0,102.0,13.4,1505.2,324.9,-0.7,1.8,2470.116,13.29,0.024,272.4
2021-04-06T08:10:03,42.805,6.029,-0.016,-0.021,-0.017,103.0,103.0,102.0,13.4,1505.2,326.4,-0.8,1.8,2470.141,13.29,0.026,217.3
2021-04-06T08:13:03,42.805,6.029,-0.014,-0.02,-0.01,104.0,103.0,102.0,13.4,1505.2,324.1,-0.7,1.9,2470.124,13.29,0.024,215.0
2021-04-06T08:16:03,42.805,6.029,-0.02,0.008,0.036,105.0,105.0,103.0,13.4,1505.2,325.2,-0.7,1.8,2470.123,13.29,0.021,291.8
2021-04-06T08:19:03,42.805,6.029,-0.012,-0.002,-0.013,103.0,105.0,102.0,13.4,1505.2,327.5,-0.7,1.8,2470.122,13.29,0.012,260.5
2021-04-06T08:22:03,42.805,6.029,-0.026,-0.02,-0.001,103.0,104.0,101.0,13.4,1505.2,329.0,-0.8,1.8,2470.121,13.29,0.032,232.4
2021-04-06T08:25:03,42.805,6.029,-0.012,-0.002,0.009,104.0,103.0,103.0,13.4,1505.2,324.9,-0.8,1.8,2470.12,13.29,0.012,260.5
2021-04-06T08:28:03,42.805,6.029,-0.011,-0.022,0.014,103.0,105.0,102.0,13.3,1505.2,326.7,-0.8,1.8,2470.136,13.29,0.024,206.6
2021-04-06T08:31:03,42.805,6.029,-0.028,-0.011,0.005,104.0,103.0,102.0,13.4,1505.2,323.2,-0.8,1.8,2470.089,13.29,0.03,248.6
2021-04-06T08:34:03,42.805,6.029,-0.019,0.005,0.009,105.0,104.0,102.0,13.4,1505.2,326.2,-0.7,1.8,2470.133,13.29,0.019,284.7
2021-04-06T08:37:03,42.805,6.029,-0.006,-0.026,0.023,104.0,104.0,102.0,13.3,1505.2,323.8,-0.7,1.9,2470.102,13.29,0.026,193.0
2021-04-06T08:40:03,42.805,6.029,-0.009,-0.015,0.021,105.0,103.0,102.0,13.3,1505.2,328.6,-0.7,1.8,2470.081,13.29,0.017,211.0
2021-04-06T08:43:03,42.805,6.029,-0.017,-0.01,0.01,104.0,103.0,102.0,13.4,1505.2,325.4,-0.8,1.8,2470.086,13.29,0.019,239.5
2021-04-06T08:46:03,42.805,6.029,0.006,-0.011,0.01,103.0,103.0,102.0,13.3,1505.2,326.3,-0.8,1.8,2470.109,13.29,0.012,151.4
2021-04-06T08:49:03,42.805,6.029,-0.021,-0.012,0.001,104.0,103.0,102.0,13.3,1505.2,323.5,-0.8,1.8,2470.077,13.29,0.024,240.3
2021-04-06T08:52:03,42.805,6.029,-0.041,0.002,-0.013,102.0,104.0,103.0,13.3,1505.2,324.6,-0.8,1.9,2470.123,13.29,0.041,272.8
2021-04-06T08:55:03,42.805,6.029,-0.026,-0.01,-0.019,103.0,103.0,103.0,13.3,1505.2,327.8,-0.7,1.8,2470.091,13.29,0.027,249.0
2021-04-06T08:58:03,42.805,6.029,-0.03,-0.018,-0.005,104.0,104.0,103.0,13.3,1505.2,324.0,-0.8,1.9,2470.114,13.29,0.034,239.0
2021-04-06T09:04:03,42.805,6.029,-0.02,-0.011,0.021,104.0,104.0,103.0,13.4,1505.2,326.5,-0.8,1.8,2470.117,13.28,0.022,241.2
2021-04-06T09:07:03,42.805,6.029,-0.03,-0.013,0.007,103.0,103.0,101.0,13.3,1505.2,325.9,-0.8,1.8,2470.039,13.29,0.032,246.6
2021-04-06T09:10:03,42.805,6.029,-0.016,0.0,0.008,102.0,103.0,103.0,13.4,1505.2,327.4,-0.7,1.9,2470.073,13.29,0.016,270.0
2021-04-06T09:13:03,42.805,6.029,-0.003,-0.015,0.004,105.0,105.0,102.0,13.3,1505.2,324.2,-0.7,1.8,2470.044,13.29,0.015,191.3
2021-04-06T09:16:03,42.805,6.029,0.0,-0.01,0.004,104.0,103.0,104.0,13.3,1505.2,326.1,-0.8,1.8,2470.07,13.29,0.01,180.0
2021-04-06T09:19:03,42.805,6.029,-0.032,0.01,0.031,103.0,104.0,103.0,13.4,1505.2,327.0,-0.7,1.9,2470.056,13.29,0.033,287.4
2021-04-06T09:22:03,42.805,6.029,-0.007,-0.016,0.022,104.0,103.0,103.0,13.4,1505.2,326.5,-0.8,1.8,2470.043,13.29,0.017,203.6
2021-04-06T09:25:03,42.805,6.029,-0.007,0.0,-0.027,104.0,104.0,103.0,13.4,1505.2,329.1,-0.8,1.8,2470.057,13.29,0.007,270.0
2021-04-06T09:28:03,42.805,6.029,-0.017,0.022,0.018,105.0,105.0,102.0,13.3,1505.2,328.2,-0.8,1.8,2470.03,13.29,0.027,322.3
2021-04-06T09:31:03,42.805,6.029,-0.008,-0.01,0.013,105.0,105.0,103.0,13.4,1505.2,324.5,-0.8,1.8,2470.06,13.29,0.012,218.7
2021-04-06T09:34:03,42.805,6.029,0.002,0.003,0.022,104.0,104.0,103.0,13.4,1505.2,327.6,-0.7,1.8,2470.055,13.29,0.003,33.7
2021-04-06T09:37:03,42.805,6.029,-0.006,-0.014,0.006,103.0,104.0,103.0,13.4,1505.2,327.2,-0.7,1.8,2470.03,13.29,0.015,203.2
2021-04-06T09:40:03,42.805,6.029,-0.024,0.008,0.0,104.0,107.0,102.0,13.4,1505.2,324.2,-0.7,1.8,2470.047,13.29,0.025,288.4
2021-04-06T09:43:03,42.805,6.029,-0.019,-0.015,-0.003,105.0,104.0,104.0,13.3,1505.2,325.6,-0.8,1.8,2470.036,13.29,0.024,231.7
2021-04-06T09:46:03,42.805,6.029,0.003,0.014,0.014,105.0,105.0,103.0,13.3,1505.2,323.2,-0.7,1.8,2470.022,13.29,0.014,12.1
2021-04-06T09:49:03,42.805,6.029,-0.019,0.008,0.029,106.0,106.0,103.0,13.3,1505.2,328.7,-0.7,1.8,2470.03,13.29,0.02,292.8
2021-04-06T09:52:03,42.805,6.029,0.003,0.0,0.0,105.0,106.0,103.0,13.3,1505.2,326.5,-0.8,1.8,2469.988,13.29,0.003,90.0
2021-04-06T09:55:03,42.805,6.029,-0.016,-0.019,0.018,104.0,105.0,101.0,13.4,1505.2,325.4,-0.8,1.8,2470.044,13.29,0.024,220.1